Location: Perryvale
(54.4667°N, 113.3833°W)
Time: 00:24:10
(UTC+00:00)

Vanguard 1 - Pass Details

Date: 25 May 2024
Orbit: 652 x 3825 km, 34.2° (Epoch: 13 June)

Event Time Altitude Azimuth Distance (km) Brightness Sun altitude
Rises 08:59:34 0° 266° (W) 6,034 13.8 -12.1°
Reaches altitude 10° 09:04:32 10° 252° (WSW) 5,512 13.5 -11.8°
Maximum altitude 09:16:01 22° 211° (SSW) 5,428 13.2 -11.1°
Drops below altitude 10° 09:30:17 10° 172° (S) 6,894 13.9 -10.2°
Sets 09:37:54 0° 160° (SSE) 7,936 14.3 -9.7°
